Location: B?lite?ti
(46.2833°N, 22.7333°E)
Time: 04:46:22
(UTC+00:00)

Cosmos 1315 Rocket - Pass Details

Date: 24 January 2021
Orbit: 529 x 567 km, 81.2° (Epoch: 26 February)

Event Time Altitude Azimuth Distance (km) Brightness Sun altitude
Rises 15:54:52 0° 343° (NNW) 2,709 6.3 -6.0°
Reaches altitude 10° 15:57:05 10° 337° (NNW) 1,818 5.5 -6.4°
Maximum altitude 16:00:55 46° 265° (W) 748 4.1 -7.0°
Drops below altitude 10° 16:04:46 10° 191° (SSW) 1,825 5.9 -7.6°
Sets 16:06:59 0° 186° (S) 2,721 6.7 -8.0°
